Regional Weather Roundup
Issued by NWS

Home | Current Version | Previous Version | Graphics & Text | Print | Product List | Glossary On
Versions: 1 2 3 4 5 6 7 8 9 10 11 12 13 14 15 16 17 18 19 20 21 22 23 24 25 26 27
000
ASUS45 KBOU 220907
RWRCO

WEATHER ROUNDUP FOR COLORADO
NATIONAL WEATHER SERVICE DENVER/BOULDER CO
300 AM MDT TUE AUG 22 2017

NOTE: "FAIR" INDICATES FEW OR NO CLOUDS BELOW 12000 FEET WITH NO
SIGNIFICANT WEATHER AND/OR OBSTRUCTIONS TO VISIBILITY.

COZ001>005-013-030-031-221000-
...NORTHWEST COLORADO...

CITY           SKY/WX    TMP DP  RH WIND       PRES   REMARKS
CRAIG          FAIR      47  34  60 SW7       30.31R
HAYDEN         FAIR      56  36  47 E14       30.33S
MEEKER         FAIR      55  36  48 SE3       30.32R
RABBIT EARS PA FAIR      48  37  66 CALM      30.61R
STEAMBOAT SPGS FAIR      51  36  57 CALM      30.35S
WALDEN         FAIR      41  32  70 SE7       30.46S
$$

COZ006>008-011-221000-
...WEST CENTRAL VALLEYS...

CITY           SKY/WX    TMP DP  RH WIND       PRES   REMARKS
GRAND JUNCTION FAIR      73  45  36 E14       30.20R
MONTROSE       FAIR      60  44  55 VRB5      30.31R
EAGLE          FAIR      55  38  52 CALM      30.39R
RIFLE          FAIR      60  41  49 E5        30.27R
DELTA          FAIR      63  45  53 NE7       30.26S HAZE
NUCLA          FAIR      64  39  39 E9        30.33R
$$

COZ017>023-064>068-221000-
...SOUTHWEST COLORADO...

CITY           SKY/WX    TMP DP  RH WIND       PRES   REMARKS
DURANGO        FAIR      60  47  61 N6        30.37R
CORTEZ         FAIR      60  53  77 NE3       30.31R
PAGOSA SPRINGS CLOUDY    53  45  73 CALM      30.44S
TELLURIDE      FAIR      57  39  51 SE5       30.53S
WOLF CREEK PAS FAIR      41  37  87 N7        30.75S
$$

COZ009-010-012-014-032>034-037-058>063-221000-
...CENTRAL COLORADO...

CITY           SKY/WX    TMP DP  RH WIND       PRES   REMARKS
ASPEN          FAIR      56  40  55 S8        30.42S
BUENA VISTA    FAIR      48  42  82 CALM      30.50S
COPPER MTN     FAIR      50  32  50 SW13      30.73S
BERTHOUD PASS  FAIR      41  36  81 W7        30.75F
COTTONWOOD PAS FAIR      55  36  47 E5        30.60S
GUNNISON       FAIR      49  43  80 NE3       30.48R
KREMMLING      FAIR      50  41  71 CALM      30.44R
LEADVILLE      FAIR      38  35  89 CALM      30.59S
MONARCH PASS   FAIR      43  34  70 E8        30.83R
SALIDA         FAIR      50  47  89 CALM      30.55R
SUNLIGHT       FAIR      50  32  50 SE5       30.66S
WILKERSON PASS FAIR      46  34  61 S3        30.71S
$$

COZ069>075-221000-
...SAN LUIS VALLEY/SANGRE DE CRISTO MOUNTAINS...

CITY           SKY/WX    TMP DP  RH WIND       PRES   REMARKS
ALAMOSA        FAIR      54  46  74 NW6       30.42F
DEL NORTE      FAIR      51  47  87 W10       30.48S
LA VETA PASS   NOT AVBL
SAGUACHE         N/A     50  45  81 N7        30.47S
$$

COZ035-036-038>040-221000-
...NORTHERN COLORADO FRONT RANGE...

CITY           SKY/WX    TMP DP  RH WIND       PRES   REMARKS
DENVER INTL AP FAIR      57  50  77 E10       30.32S
DMNS CITY PARK   N/A     61  50  65 N8        30.32R
AURORA         NOT AVBL
FRONT RANGE AP MOCLDY    61  54  77 E13       30.34R
ERIE MUNI ARPT FAIR      57  51  78 CALM      30.36S
BOULDER MUN AP FAIR      63  46  55 NW3       30.31S
CENTENNIAL     FAIR      59  52  77 S3        30.34R
BROOMFIELD     FAIR      63  48  59 N7        30.33F
FORT COLLINS   MOCLDY    63  49  60 E6        30.32R
LONGMONT       FAIR      60  50  69 N3        30.33R
$$

COZ041-046-047-076>085-087-088-221000-
...PIKES PEAK/PALMER DIVIDE AND SOUTHERN FOOTHILLS...

CITY           SKY/WX    TMP DP  RH WIND       PRES   REMARKS
COLO. SPRINGS  FAIR      62  52  69 N3        30.36F
A. F. ACADEMY  NOT AVBL
SCHRIEVER AFB  NOT AVBL
CHEYENNE MTN   NOT AVBL
ELLICOTT       CLOUDY   N/A N/A N/A NE3       30.35S
FALCON         FAIR      57  52  85 W7        30.41R
FORT CARSON    NOT AVBL
LIMON          MOCLDY    59  58  96 NE7       30.32R
MONUMENT HILL  FAIR      50  48  93 SW3       30.42S
CANON CITY     CLOUDY    66  52  59 W8        30.31S
WALSENBURG     FAIR      63  52  67 W10       30.32S
TRINIDAD       FAIR      62  49  62 NW6       30.31R
$$

COZ042>045-048>051-090-091-221000-
...NORTHEAST COLORADO...

CITY           SKY/WX    TMP DP  RH WIND       PRES   REMARKS
GREELEY ARPT   FAIR      55  51  86 N5        30.31R
AKRON          FAIR      60  57  89 E10       30.28S
BURLINGTON     CLOUDY    66  64  93 NE10      30.24R
WRAY           NOT AVBL
YUMA           NOT AVBL
STERLING       MOCLDY    57  54  88 CALM      30.26R
HOLYOKE        FAIR      61  57  88 N5        30.25R
FORT MORGAN    FAIR      54  50  87 NE6       30.29S
$$

COZ086-089-092>099-221000-
...SOUTHEAST COLORADO...

CITY           SKY/WX    TMP DP  RH WIND       PRES   REMARKS
PUEBLO         FAIR      66  51  58 NE6       30.25S
LA JUNTA       FAIR      69  63  81 NE7       30.23R
LAMAR          CLOUDY    70  65  84 NE8       30.18R
SPRINGFIELD      N/A     67  66  97 N20G26    30.19R
$$




USA.gov is the U.S. government's official web portal to all federal, state and local government web resources and services.